Regional Weather Roundup
Issued by NWS

Home | Current Version | Previous Version | Graphics & Text | Print | Product List | Glossary On
Versions: 1 2 3 4 5 6 7 8 9 10 11 12 13 14 15 16 17 18 19 20 21 22 23 24 25 26 27 28 29 30 31 32 33 34 35 36 37 38 39 40 41 42 43 44 45 46 47 48 49 50
000
ASUS43 KMKX 040321
RWRWI

WISCONSIN REGIONAL WEATHER ROUNDUP
NATIONAL WEATHER SERVICE MILWAUKEE/SULLIVAN WI
1000 PM CDT THU SEP 03 2015

NOTE: "FAIR" INDICATES FEW OR NO CLOUDS BELOW 12,000 FEET WITH NO
SIGNIFICANT WEATHER AND/OR OBSTRUCTIONS TO VISIBILITY.

WIZ001-002-006>008-014>016-023>028-040400-
NORTHWEST WISCONSIN

CITY           SKY/WX    TMP DP  RH WIND       PRES   REMARKS
SUPERIOR ARPT  CLEAR     57  55  94 NE5       29.98R
ASHLAND        CLEAR     54  54 100 CALM      29.99R FOG
HAYWARD        CLEAR     66  64  93 CALM      29.98R
SIREN          CLEAR     71  67  89 SE3       29.94S
CUMBERLAND     CLEAR     68  64  88 SE3       29.97R
RICE LAKE      CLEAR     65  63  93 CALM      29.98R
CHETEK         CLEAR     69  67  94 SE3       29.96S
LADYSMITH      CLEAR     67  65  93 E3        30.00R
EAU CLAIRE     CLEAR     71  65  81 E3        29.94R
MENOMONIE      CLEAR     70  67  88 E6        29.94S
NEW RICHMOND   CLEAR     72  65  81 SE7       29.94R
OSCEOLA        CLEAR     72  68  86 E8        29.95R
$$

WIZ003>005-009-010-017-018-040400-
NORTH CENTRAL WISCONSIN

CITY           SKY/WX    TMP DP  RH WIND       PRES   REMARKS
MANITOWISH WTR MOCLDY    60  60 100 CALM      30.02R FOG
ARBOR VITAE    CLEAR     66  64  93 CALM      30.02S
WOODRUFF       CLEAR     66  64  93 CALM      30.02S
RHINELANDER    CLEAR     62  58  86 CALM      30.03R
EAGLE RIVER    CLOUDY    62  62 100 CALM      30.03R FOG
LAND O LAKES   FOG       61  61  99 CALM      30.04R VSB 3/4
PHILLIPS       CLEAR     65  64  96 CALM      30.00S
TOMAHAWK       CLEAR     60  58  96 CALM      30.02R FOG
MEDFORD        CLEAR     65  64  97 E3        30.00S
MERRILL        FOG       60  60 100 CALM      30.01S VSB 1/4
$$

WIZ029-030-035-036-043>047-040400-
CENTRAL WISCONSIN

CITY           SKY/WX    TMP DP  RH WIND       PRES   REMARKS
WAUSAU         CLEAR     66  64  93 CALM      29.98R
MOSINEE        CLEAR     64  64 100 E3        30.01R
MARSHFIELD     CLEAR     67  63  87 E3        29.99R
STEVENS POINT  CLEAR     64  63  98 CALM      29.99S
WAUPACA        CLEAR     66  65  98 CALM      29.98S
WAUTOMA        CLEAR     64  64 100 CALM      29.98S
WISC RAPIDS    CLEAR     65  63  93 CALM      29.99R
CAMP DOUGLAS   LGT RAIN  70  70 100 SE2       29.97R FOG
$$

WIZ011>013-019>022-031-037>040-048>050-040400-
NORTHEAST WISCONSIN

CITY           SKY/WX    TMP DP  RH WIND       PRES   REMARKS
ANTIGO         CLEAR     63  62  96 NE3       30.02R
SHAWANO        NOT AVBL
OCONTO         CLEAR     62  62 100 CALM      29.97R
STURGEON BAY   PTCLDY    64  61  88 N6        29.99S
GREEN BAY      CLEAR     65  63  93 N5        29.97R
MANITOWOC      CLEAR     64  63  96 MISG      29.97R
APPLETON       MOCLDY    66  64  94 CALM      29.97R
CLINTONVILLE   FOG       64  64 100 CALM      29.98S VSB 1/2
OSHKOSH        CLEAR     67  64  90 N5        29.96S
$$

WIZ032>034-041-042-053>061-040400-
SOUTHWEST WISCONSIN

CITY           SKY/WX    TMP DP  RH WIND       PRES   REMARKS
LA CROSSE      PTCLDY    79  69  71 SE6G17    29.92R HX  81
SPARTA         CLOUDY    73  65  74 E7        29.96R
VIROQUA          N/A     74  73  97 E8        29.96R
BOSCOBEL       MOCLDY    80  74  81 VRB5      29.93R HX  85
PRAIRIE DU CHI CLEAR     77  73  88 E3        29.91R
PLATTEVILLE    PTCLDY    79  75  87 SE3       29.94R HX  83
$$

WIZ056-057-062-063-064-067-068-040400-
SOUTH CENTRAL WISCONSIN

CITY           SKY/WX    TMP DP  RH WIND       PRES   REMARKS
REEDSBURG      CLEAR     71  67  88 E6        29.97R
BARABOO/DELLS  CLEAR     70  65  85 E3        29.97S
LONE ROCK      CLEAR     73  69  87 E7        29.95R
MINERAL POINT  PTCLDY    77  72  83 E8        29.96R
MADISON        MOCLDY    71  65  81 E5        29.96R
MIDDLETON      CLEAR     72  67  86 E5        29.98R
WATERTOWN      CLOUDY    70  70 100 CALM      29.96S
MONROE         MOCLDY    73  70  88 NE8       29.96R
JANESVILLE     MOCLDY    73  72  94 E3        29.95R
$$

WIZ051-052-058>065-066-070>072-040400-
SOUTHEAST WISCONSIN

CITY           SKY/WX    TMP DP  RH WIND       PRES   REMARKS
MILWAUKEE      MOCLDY    65  63  93 N7        29.94F
WAUKESHA       CLOUDY    68  63  83 CALM      29.97S
MILWAUKEE/TIMM CLOUDY    66  61  82 CALM      29.96S
RACINE         CLOUDY    65  63  93 N6        29.97R
BURLINGTON     CLOUDY    68  64  85 NE5       29.96S
KENOSHA        CLOUDY    69  65  86 N3        29.96S
FOND DU LAC    CLEAR     65  64  97 NW3       29.97R
SHEBOYGAN      CLEAR     65  64  97 N8        29.96S
WEST BEND      CLEAR     64  61  88 CALM      29.96F
JUNEAU         CLEAR     67  64  91 CALM      29.97S
$$

LSZ147-162-040400-
LAKE SUPERIOR

STATION/POSITION TIME  TEMP    WIND        PRES    WAVE
                       AIR SEA DIR/SP/G            HT/PER
                 (UTC) (F)     (DEG/KT/KT) (MB)    (FT/S)
W MID LAKE BUOY  0250   60 57   70/ 10/ 12 1015.5R   1
DEVILS ISLAND    0300   60      70/  6/  6 1015.5R
PORT WING        0240   55      50/  7/  9 1015.2R
SAXON HARBOR     0200   60        CALM     1014.6S
$$

LMZ867-665-643>646-040400-
LAKE MICHIGAN

STATION/POSITION TIME  TEMP    WIND        PRES    WAVE
                       AIR SEA DIR/SP/G            HT/PER
                 (UTC) (F)     (DEG/KT/KT) (MB)    (FT/S)
CHAMBERS ISLAND  0200   66      10/  4/  6 1014.6R
N MID LAKE BUOY  0250   68 66   60/ 12/ 14 1014.2R   2/ 3
NORTHPORT PIER   0200   69      50/  7/ 10 1014.6R
SISTER BAY       0211   69        CALM       N/A
ALGOMA LAKESHORE 0244          330/  8/  9   N/A
KEWAUNEE LAKESHO 0300   64     310/  4/  5 1013.7R
SHEBOYGAN LAKESH 0300   64     350/ 11/ 12 1014.4F
PORT WASHINGTON  0200   67     340/  2/  4 1014.9R
ATWATER BUOY     0300   58     270/  2/  4 1015.4F
MILWAUKEE LAKESH 0210   65      30/  5/  6   N/A
S MID LAKE BUOY  0250   70 71  360/ 12/ 14 1013.0R
KENOSHA   LAKESH 0300   65     340/  7/  8 1014.2R
$$

TC  - TEMPERATURE IN CELSIUS
VSB - VISIBILITY IN STATUTE MILES
WCI - WIND CHILL INDEX
HX  - HEAT INDEX




USA.gov is the U.S. government's official web portal to all federal, state and local government web resources and services.